SCP
0 0 0 0 0 0 0 0 0 0 0 0 0 0 0 0 0 0 0 0 0 0 1 1 1 1 1 0 0 0 0 0 0 0 0 0 0 0 0 0 0 0 0
0 0 0 0 0 0 0 0 0 0 0 0 0 0 0 0 0 0 0 0 0 0 1 1 1 1 0 0 0 0 0 0 0 0 0 0 0 0 0 0 0 0 0
0 0 0 0 0 0 0 0 0 0 0 0 0 0 0 0 0 0 0 0 0 0 0 0 0 1 0 0 0 0 0 0 0 0 0 0 0 0 0 0 0 0 0
0 0 0 0 0 0 0 0 0 0 0 0 0 0 0 0 0 0 0 0 0 0 0 0 0 0 0 0 0 0 0 0 0 0 0 0 0 0 0 0 0 0 0
0 0 0 0 0 0 0 0 0 0 0 0 0 0 0 0 0 0 0 0 0 0 0 0 0 0 0 0 0 0 0 0 0 0 0 0 0 0 0 0 0 0 0
0 0 0 0 0 0 0 0 0 0 0 0 0 0 0 0 0 0 0 0 0 0 0 0 0 0 0 0 0 0 0 0 0 0 0 0 0 0 0 0 0 0 0
0 0 0 0 0 0 0 0 0 0 0 0 0 0 0 0 0 0 0 0 0 0 0 0 0 0 0 0 0 0 0 0 0 0 0 0 0 0 0 0 0 0 0
0 0 0 0 0 0 0 0 0 0 0 0 0 0 0 0 0 0 0 0 0 0 0 0 0 0 0 0 0 0 0 0 0 0 0 0 0 0 0 0 0 0 0
0 0 0 0 0 0 0 0 0 0 0 0 0 0 0 0 0 0 0 0 0 0 0 0 0 0 0 0 0 0 0 0 0 0 0 0 0 0 0 0 0 0 0
0 0 0 0 0 0 0 0 0 0 0 0 0 0 0 0 0 0 0 0 0 0 0 0 0 0 0 0 0 0 0 0 0 0 0 0 0 0 0 0 0 0 0
0 0 0 0 0 0 0 0 0 0 0 0 0 0 0 0 0 0 0 0 0 0 0 0 0 0 0 0 0 0 0 0 0 0 0 0 0 0 0 0 0 0 0
0 0 0 0 0 0 0 0 0 0 0 0 0 0 0 0 0 0 0 0 0 0 0 0 0 0 0 0 0 0 0 0 0 0 0 0 0 0 0 0 0 0 0
0 0 0 0 0 0 0 0 0 0 0 0 0 0 0 0 0 0 0 0 0 0 0 0 0 0 0 0 0 0 0 0 0 0 0 0 0 0 0 0 0 0 0
0 0 0 0 0 0 0 0 0 0 0 0 0 0 0 0 0 0 0 0 0 0 0 0 0 0 0 0 0 0 0 0 0 0 0 0 0 0 0 0 0 0 0
0 0 0 0 0 0 0 0 0 0 0 0 0 0 0 0 0 0 0 0 0 0 0 0 0 0 0 0 0 0 0 0 0 0 0 0 0 0 0 0 0 0 0
0 0 0 0 0 0 0 0 0 0 0 0 0 0 0 0 0 0 0 0 0 0 0 0 0 0 0 0 0 0 0 0 0 0 0 0 0 0 0 0 0 0 0
0 0 0 0 0 -0 -0 0 0 0 0 0 0 0 0 0 0 0 0 0 0 0 0 0 0 0 0 0 0 0 0 0 0 0 0 0 0 0 0 0 0 0 0
0 0 0 0 0 -0 -0 -0 0 0 0 0 0 0 0 0 0 0 0 0 0 0 0 0 0 0 0 0 0 0 0 -0 -0 0 0 0 0 0 0 0 0 0 0
0 0 0 0 0 0 0 0 0 0 0 0 0 0 0 0 0 0 0 0 0 0 0 0 0 0 0 0 0 0 0 0 0 0 0 0 0 0 0 0 0 0 0
0 0 0 0 0 0 0 0 0 0 0 0 0 0 0 0 0 0 0 0 0 0 0 0 0 0 0 0 0 0 0 0 0 0 0 0 0 0 0 0 0 0 0
0 0 0 0 0 0 0 0 0 0 0 0 0 0 0 0 0 0 0 0 0 0 0 0 0 0 0 0 0 0 0 0 0 0 0 0 0 0 0 0 0 0 0
0 0 0 0 0 0 0 0 0 0 0 0 0 0 0 0 0 0 0 0 0 0 0 0 0 0 0 0 0 0 0 0 0 0 0 0 0 0 0 0 0 0 0
0 0 0 0 0 0 0 0 0 0 0 0 0 0 0 0 0 0 0 0 0 0 0 0 0 0 0 0 0 0 0 0 0 0 0 0 0 0 0 0 0 0 0
0 0 0 0 0 0 0 0 0 0 0 0 0 0 0 0 0 0 0 0 0 0 0 0 0 0 0 0 0 0 0 0 0 0 0 0 0 0 0 0 0 0 0
0 0 0 0 0 0 0 0 0 0 0 0 0 0 0 0 0 0 0 0 0 0 0 0 0 0 0 0 0 0 0 0 0 0 0 0 0 0 0 0 0 0 0
0 0 0 0 0 0 0 0 0 0 0 0 0 0 0 0 0 0 0 0 0 0 0 0 0 0 0 0 0 0 0 0 0 0 0 0 0 0 0 0 0 0 0
Wind_Speed
5 5 5 5 6 5 6 6 5 5 3 3 3 3 3 3 3 3 5 5 5 5 5 4 5 5 6 6 6 5 6 5 3 2 2 3 5 5 5 5 5 6 7
7 7 7 6 6 6 6 6 5 4 4 3 3 3 3 3 3 3 4 5 5 5 5 5 5 5 5 6 7 5 4 4 5 4 2 2 4 6 7 5 6 6 5
7 8 8 8 7 7 6 6 6 5 4 3 2 3 3 3 3 3 4 5 5 5 5 5 5 5 6 6 7 7 7 5 5 5 5 4 5 3 4 7 7 7 6
7 8 9 9 8 8 6 6 6 5 4 3 2 3 3 4 4 3 3 4 5 5 5 6 6 6 5 6 6 7 6 6 5 5 5 4 3 3 2 4 6 7 7
7 8 8 9 8 8 7 6 6 6 4 3 3 3 4 4 3 3 4 4 3 4 5 5 5 5 5 6 6 6 7 7 7 5 4 5 4 4 3 3 4 4 5
6 7 7 8 8 8 7 6 6 6 5 4 3 3 4 5 4 4 3 3 2 2 3 4 3 4 4 5 6 6 7 7 8 7 6 5 5 6 5 5 5 5 5
6 7 8 8 9 9 9 8 7 6 6 5 4 4 4 4 4 4 3 3 2 2 3 3 3 3 3 4 5 6 6 7 8 9 8 7 7 5 5 5 4 5 4
5 6 7 7 8 9 9 9 8 8 7 6 5 4 4 3 2 3 3 3 2 2 2 2 2 2 3 3 3 4 4 5 6 8 8 6 6 6 6 5 4 4 4
5 5 6 6 7 8 8 8 8 8 8 8 7 6 5 4 3 3 3 3 3 3 3 2 2 2 2 2 2 2 3 3 4 5 6 6 5 5 5 5 5 6 7
4 5 5 5 5 6 6 7 8 7 7 7 7 6 5 5 5 4 4 4 4 4 4 3 2 3 3 3 2 1 2 2 3 3 4 5 4 4 4 4 5 6 7
3 4 4 4 5 5 6 7 7 7 8 8 7 7 6 5 5 5 5 5 5 5 4 3 3 3 3 3 2 2 2 2 2 2 3 4 4 3 4 4 4 5 5
2 2 3 4 4 5 6 6 7 7 7 7 7 7 7 6 6 6 6 6 6 5 5 5 4 4 4 4 3 3 2 2 3 3 3 3 3 4 3 4 5 5 6
1 2 3 3 4 5 5 5 6 6 6 6 7 7 7 7 7 7 7 7 6 6 7 6 6 6 6 6 5 5 4 3 3 3 3 3 3 4 3 3 4 4 5
1 2 2 3 3 4 5 6 6 6 6 6 6 7 7 6 6 6 6 7 6 6 7 7 6 6 6 6 6 5 5 4 4 3 3 3 3 4 4 3 4 4 5
1 1 2 2 3 4 5 5 6 6 6 6 6 6 6 6 6 6 6 6 7 7 7 6 6 6 5 6 6 5 5 4 4 4 4 4 4 5 5 4 4 4 4
1 1 1 2 3 3 4 4 5 6 6 6 6 6 7 7 7 7 7 7 7 7 7 7 7 7 6 10 11 8 5 5 5 5 5 5 5 6 8 8 7 6 5
1 1 1 1 1 2 3 4 4 5 5 6 6 7 7 7 7 7 7 7 7 7 7 7 7 7 8 12 12 11 6 5 5 5 5 5 5 7 5 7 8 8 9
2 2 2 2 2 2 3 3 4 4 5 5 6 6 6 6 6 7 7 7 6 6 6 7 7 7 9 14 13 13 7 5 5 5 5 5 5 6 7 5 5 6 6
2 2 2 2 2 2 2 3 3 3 4 5 5 5 6 6 6 7 6 5 5 5 5 5 6 6 8 13 14 12 5 5 5 6 6 6 5 10 12 7 6 7 6
3 3 3 3 3 2 2 2 2 3 4 4 4 4 5 5 5 5 5 4 4 4 5 5 5 5 6 11 13 13 5 5 5 5 5 9 9 12 13 7 6 7 7
3 4 4 3 3 2 2 2 1 2 2 3 3 4 4 4 4 4 4 4 4 4 4 4 4 4 6 9 13 13 6 5 6 5 5 6 13 15 15 12 7 9 10
4 4 4 3 3 3 2 2 1 0 1 1 2 3 3 3 3 4 4 4 4 4 4 4 5 4 5 8 11 14 13 11 6 5 5 7 14 15 14 10 11 14 11
4 4 4 4 3 3 3 3 1 1 1 1 2 2 3 3 3 3 4 4 4 4 4 4 4 4 4 6 12 14 15 15 8 6 12 14 16 14 10 11 14 11 5
5 5 5 5 4 4 3 3 2 1 0 1 1 2 2 3 3 3 2 3 3 3 4 4 4 4 4 5 5 6 7 10 9 7 9 13 13 10 10 9 7 5 5
4 5 5 5 5 4 4 3 2 2 1 0 1 1 1 2 2 2 2 2 1 2 4 3 3 4 5 8 14 10 7 7 8 8 5 4 5 5 5 5 4 4 5
4 4 5 5 5 5 4 4 3 2 1 0 1 1 1 1 2 2 3 3 4 6 7 6 6 5 9 13 14 15 16 16 15 8 5 5 5 6 6 7 6 5 5
Wind_Direction
346 346 341 335 328 321 313 301 296 288 285 283 280 277 272 268 268 256 245 242 233 222 216 210 202 200 200 199 196 192 193 196 177 172 222 247 239 232 219 211 206 204 199
347 345 342 338 330 322 319 309 298 289 282 277 275 269 271 268 262 258 252 244 232 220 220 213 207 204 201 202 199 194 191 194 180 164 167 228 245 243 229 216 210 209 200
348 343 343 342 335 326 319 315 305 291 279 279 289 297 292 287 280 272 261 248 239 226 217 215 212 209 205 206 205 200 194 198 196 182 175 186 215 225 226 219 213 207 204
350 346 345 341 338 331 326 320 315 306 297 288 282 281 279 272 269 267 261 254 245 237 221 216 213 212 212 212 210 207 203 197 199 202 209 208 190 192 232 235 220 211 210
350 345 345 341 342 341 337 328 326 320 312 300 280 275 278 279 282 280 270 262 246 241 237 226 213 210 211 214 214 210 207 206 203 198 198 217 234 224 211 236 230 224 221
349 347 346 346 347 346 344 340 335 330 330 323 311 292 285 286 291 287 274 275 267 248 248 242 226 217 210 210 214 214 215 216 214 209 204 196 198 206 210 223 222 225 225
354 350 350 353 352 348 348 349 349 344 339 334 326 311 297 293 289 293 290 291 283 271 265 254 240 232 224 219 218 217 221 220 222 220 217 214 216 203 203 216 224 231 236
357 352 352 355 353 350 353 354 352 352 351 348 340 333 323 309 309 318 317 311 305 304 305 286 275 263 244 232 227 225 228 227 229 232 228 225 223 216 211 209 213 236 239
356 352 354 359 357 356 357 354 355 358 0 360 356 355 352 348 349 348 344 335 339 338 339 338 328 318 306 277 247 241 246 242 237 238 237 236 230 225 221 217 213 223 238
0 1 5 5 0 357 357 1 3 1 2 4 2 359 1 4 4 7 4 359 356 354 351 353 359 354 348 341 325 305 296 273 261 250 244 245 243 235 227 225 223 225 235
8 7 7 7 2 1 5 4 2 5 8 6 2 2 3 7 10 15 10 5 4 3 6 4 15 12 359 348 349 342 333 295 291 293 267 260 255 248 240 230 229 231 232
8 14 15 9 7 6 7 8 5 9 7 3 8 11 11 15 18 17 9 7 11 12 15 17 25 21 11 10 9 1 348 325 312 307 299 294 288 265 260 247 240 237 235
359 10 18 14 11 9 11 11 10 10 6 7 13 16 19 21 19 15 11 13 18 21 22 26 29 26 22 19 11 3 356 346 335 325 308 305 304 282 268 263 259 251 248
55 17 11 18 19 17 16 13 10 7 6 11 15 17 15 14 13 12 15 17 21 24 23 25 26 26 23 21 10 2 359 355 350 344 338 334 319 304 291 272 269 267 255
84 41 19 15 19 23 20 18 14 10 10 14 17 15 10 11 12 14 16 19 24 26 23 22 20 17 19 17 6 356 354 351 348 346 344 345 340 323 319 311 293 282 267
164 86 53 38 27 24 21 23 19 16 19 19 18 17 16 15 14 13 16 19 21 21 23 23 21 21 17 8 7 4 1 358 357 352 348 345 345 347 342 335 323 306 284
165 143 127 89 55 40 34 31 22 21 24 20 19 20 18 17 13 13 18 17 16 16 17 18 20 20 14 10 8 8 5 359 355 350 344 344 349 352 344 337 335 325 312
161 149 127 105 82 63 51 42 34 27 27 23 20 17 16 16 15 20 20 16 15 15 15 15 15 15 12 12 10 6 8 0 358 354 349 347 346 345 341 334 327 315 312
145 142 136 122 102 79 64 57 39 29 29 21 15 13 12 12 13 16 12 10 12 14 10 8 9 12 8 11 11 9 359 1 357 353 350 344 341 340 341 335 319 312 309
138 136 128 113 109 95 81 70 42 31 21 9 4 6 7 10 11 6 3 1 5 3 357 359 2 7 7 9 11 7 359 356 348 341 341 346 342 339 338 331 318 311 307
149 144 135 132 135 119 103 95 61 30 4 358 3 5 2 4 6 1 357 352 350 348 348 352 355 3 8 6 7 4 360 349 341 338 335 333 336 332 329 325 314 308 308
165 157 150 152 144 135 136 142 150 10 7 358 360 357 355 356 1 352 346 345 345 347 349 355 357 1 1 2 359 358 354 348 339 330 323 322 328 327 327 325 322 321 319
181 169 163 164 162 158 158 173 186 131 9 349 349 346 346 347 350 350 348 345 350 354 352 355 353 350 352 350 354 351 347 345 339 325 326 327 330 330 329 331 331 330 320
185 175 171 179 185 175 170 173 152 134 100 334 334 339 341 343 349 352 358 356 353 352 349 349 345 339 339 338 339 336 336 337 332 325 323 327 328 329 327 330 331 328 320
184 175 181 190 188 171 170 163 150 145 177 266 312 330 338 341 338 342 346 348 336 336 334 329 326 329 328 331 336 338 333 329 323 325 321 321 325 330 328 324 322 321 322
182 181 185 187 181 169 168 162 154 156 171 252 311 333 337 336 338 337 334 331 322 330 332 327 326 323 325 330 336 337 337 336 336 339 333 330 330 329 328 327 324 322 321